Location: Carnetin
(48.9010°N, 2.7059°E)
Time: 05:31:59
(UTC+00:00)

USA 229 - Pass Details

Date: 30 May 2022
Orbit: 938 x 1274 km, 63.4° (Epoch: 24 May)

Event Time Altitude Azimuth Distance (km) Brightness Sun altitude
Rises 21:16:00 0° 313° (NW) 3,879 8.5 -11.7°
Reaches altitude 10° 21:18:48 10° 322° (NW) 2,972 7.6 -11.9°
Maximum altitude 21:25:26 39° 30° (NNE) 1,674 5.0 -12.5°
Drops below altitude 10° 21:32:32 10° 98° (E) 3,182 5.8 -13.2°
Enters shadow 21:34:34 - 103° (ESE) 3,832 6.2 -13.3°
